Malaga, Spain

12:39 AM CET on December 09, 2016 (GMT +0100)
Malaga

Weather History for LEMG - February, 2014

Change the Weather History Date:

Friday, February 21, 2014

  Actual Average Record
Temperature  
Mean Temperature 57 °F -  
Max Temperature 63 °F 64 °F 73 °F (2002)
Min Temperature 51 °F 47 °F 39 °F (2005)
Degree Days  
Heating Degree Days 8    
Growing Degree Days 7 (Base 50)    
Moisture  
Dew Point 42 °F    
Average Humidity 56    
Maximum Humidity 88    
Minimum Humidity 26    
Precipitation  
Precipitation 0.00 in 0.08 in - ()
Sea Level Pressure  
Sea Level Pressure 30.16 in    
Wind  
Wind Speed 12 mph ()    
Max Wind Speed 20 mph    
Max Gust Speed 32 mph    
Visibility 7.5 miles    
Events      
Averages and records for this station are not official NWS values.
T = Trace of Precipitation, MM = Missing Value Source: Averaged Metar Reports

Daily Weather History Graph

Daily Weather History Graph

Search for Another Location

Airport or City:

Trip Planner

Search our weather history database for the weather conditions in past years. The results will help you decide how hot, cold, wet, or windy it might be!

Date:

Astronomy

Feb. 21, 2014 Rise Set
Actual Time 7:59 AM CET 7:04 PM CET
Civil Twilight 7:33 AM CET 7:30 PM CET
Nautical Twilight 7:02 AM CET 8:00 PM CET
Astronomical Twilight 6:33 AM CET 8:30 PM CET
Moon 12:33 AM CET (2/21) 11:23 AM CET (2/21)
Length of Visible Light 11h 57m
Length of Day
11h 05m
Waning Gibbous, 63% of the Moon is Illuminated
Feb 21
Waning Gibbous
Feb 22
Last Quarter
Mar 1
New
Mar 8
First Quarter
Mar 16
Full

Hourly Weather History & Observations

Time (CET) Temp. Dew Point Humidity Pressure Visibility Wind Dir Wind Speed Gust Speed Precip Events Conditions
12:00 AM 55.4 °F 48.2 °F 77% 30.15 in 6.2 mi WNW 10.4 mph - N/A   Partly Cloudy
12:30 AM 57.2 °F 48.2 °F 72% 30.15 in 6.2 mi WNW 16.1 mph - N/A   Partly Cloudy
1:00 AM 58 °F 49 °F 63% 30.17 in 12 mi WNW 12.7 mph - -   Partly Cloudy
1:00 AM 57.2 °F 50.0 °F 77% 30.15 in 6.2 mi WNW 12.7 mph - N/A   Scattered Clouds
1:30 AM 57.2 °F 50.0 °F 77% 30.15 in 6.2 mi WNW 13.8 mph - N/A   Scattered Clouds
2:00 AM 58 °F 48 °F 62% 30.16 in - WNW 15.0 mph - -  
2:00 AM 57.2 °F 50.0 °F 77% 30.15 in 6.2 mi WNW 15.0 mph - N/A   Scattered Clouds
2:30 AM 57.2 °F 50.0 °F 77% 30.15 in 6.2 mi WNW 16.1 mph - N/A   Scattered Clouds
3:00 AM 57 °F 49 °F 66% 30.15 in - WNW 13.8 mph - -  
3:00 AM 57.2 °F 50.0 °F 77% 30.12 in 6.2 mi WNW 12.7 mph - N/A   Scattered Clouds
3:30 AM 57.2 °F 50.0 °F 77% 30.12 in 6.2 mi WNW 10.4 mph - N/A   Scattered Clouds
4:00 AM 58 °F 49 °F 64% 30.14 in 12 mi WNW 13.8 mph - -   Partly Cloudy
4:00 AM 57.2 °F 50.0 °F 77% 30.12 in 6.2 mi WNW 12.7 mph - N/A   Scattered Clouds
4:30 AM 59.0 °F 50.0 °F 72% 30.12 in 6.2 mi NW 10.4 mph - N/A   Scattered Clouds
5:00 AM 58 °F 49 °F 63% 30.14 in - WNW 8.1 mph - -  
5:00 AM 57.2 °F 50.0 °F 77% 30.12 in 6.2 mi WNW 6.9 mph - N/A   Scattered Clouds
6:00 AM 54 °F 48 °F 73% 30.13 in - SW 3.5 mph - -  
6:00 AM 53.6 °F 48.2 °F 82% 30.12 in 6.2 mi WSW 1.2 mph - N/A   Scattered Clouds
6:30 AM 51.8 °F 48.2 °F 88% 30.12 in 6.2 mi Calm Calm - N/A   Scattered Clouds
7:00 AM 53 °F 48 °F 76% 30.14 in 12 mi Calm Calm - -   Partly Cloudy
7:00 AM 51.8 °F 48.2 °F 88% 30.12 in 6.2 mi Calm Calm - N/A   Scattered Clouds
7:30 AM 51.8 °F 48.2 °F 88% 30.12 in 6.2 mi Calm Calm - N/A   Scattered Clouds
8:00 AM 54 °F 48 °F 74% 30.15 in - West 5.8 mph - -  
8:00 AM 53.6 °F 48.2 °F 82% 30.12 in 6.2 mi West 4.6 mph - N/A   Scattered Clouds
8:30 AM 55.4 °F 50.0 °F 82% 30.15 in 6.2 mi WNW 9.2 mph - N/A   Scattered Clouds
9:00 AM 58 °F 49 °F 63% 30.17 in - NW 12.7 mph - -  
9:00 AM 57.2 °F 50.0 °F 77% 30.15 in 6.2 mi NW 12.7 mph - N/A   Scattered Clouds
9:30 AM 57.2 °F 48.2 °F 72% 30.15 in 6.2 mi NW 10.4 mph - N/A   Scattered Clouds
10:00 AM 60 °F 47 °F 51% 30.19 in 25 mi WNW 15.0 mph - -   Partly Cloudy
10:00 AM 59.0 °F 48.2 °F 67% 30.18 in 6.2 mi WNW 13.8 mph - N/A   Scattered Clouds
10:30 AM 59.0 °F 44.6 °F 59% 30.18 in 6.2 mi WNW 16.1 mph 27.6 mph N/A   Scattered Clouds
11:00 AM 61 °F 44 °F 43% 30.19 in - WNW 13.8 mph - -  
11:00 AM 60.8 °F 46.4 °F 59% 30.18 in 6.2 mi WNW 15.0 mph 29.9 mph N/A   Scattered Clouds
11:30 AM 59.0 °F 44.6 °F 59% 30.18 in 6.2 mi WNW 18.4 mph - N/A   Partly Cloudy
12:00 PM 61 °F 44 °F 42% 30.20 in - WNW 13.8 mph - -  
12:00 PM 59.0 °F 44.6 °F 59% 30.18 in 6.2 mi WNW 11.5 mph 23.0 mph N/A   Partly Cloudy
12:30 PM 59.0 °F 42.8 °F 55% 30.18 in 6.2 mi NW 15.0 mph - N/A   Partly Cloudy
1:00 PM 60 °F 38 °F 32% 30.20 in 19 mi NW 13.8 mph - -   Scattered Clouds
1:00 PM 59.0 °F 39.2 °F 48% 30.18 in 6.2 mi NW 13.8 mph - N/A   Partly Cloudy
1:30 PM 60.8 °F 39.2 °F 45% 30.18 in 6.2 mi NW 15.0 mph 26.5 mph N/A   Partly Cloudy
2:00 PM 62 °F 37 °F 27% 30.18 in - NW 17.3 mph - -  
2:00 PM 60.8 °F 37.4 °F 42% 30.15 in 6.2 mi NW 17.3 mph - N/A   Partly Cloudy
2:30 PM 60.8 °F 37.4 °F 42% 30.15 in 6.2 mi NW 18.4 mph - N/A   Partly Cloudy
3:00 PM 62 °F 36 °F 26% 30.15 in - WNW 15.0 mph - -  
3:00 PM 60.8 °F 37.4 °F 42% 30.12 in 6.2 mi WNW 15.0 mph - N/A   Partly Cloudy
3:30 PM 62.6 °F 39.2 °F 42% 30.12 in 6.2 mi WNW 13.8 mph - N/A   Partly Cloudy
4:00 PM 62 °F 36 °F 26% 30.14 in 19 mi NW 17.3 mph - -   Scattered Clouds
4:00 PM 60.8 °F 37.4 °F 42% 30.12 in 6.2 mi NW 18.4 mph - N/A   Partly Cloudy
4:30 PM 60.8 °F 35.6 °F 39% 30.12 in 6.2 mi NW 17.3 mph 29.9 mph N/A   Partly Cloudy
5:00 PM 62 °F 36 °F 26% 30.14 in - NW 17.3 mph - -  
5:00 PM 60.8 °F 37.4 °F 42% 30.12 in 6.2 mi NW 16.1 mph - N/A   Partly Cloudy
5:30 PM 59.0 °F 35.6 °F 42% 30.12 in 6.2 mi NW 18.4 mph 32.2 mph N/A   Partly Cloudy
6:00 PM 60 °F 35 °F 27% 30.15 in - NW 16.1 mph - -  
6:00 PM 59.0 °F 35.6 °F 42% 30.15 in 6.2 mi NW 15.0 mph 26.5 mph N/A   Partly Cloudy
6:30 PM 57.2 °F 35.6 °F 44% 30.15 in 6.2 mi NW 13.8 mph 25.3 mph N/A   Partly Cloudy
7:00 PM 58 °F 34 °F 28% 30.16 in 16 mi WNW 16.1 mph - -   Scattered Clouds
7:00 PM 57.2 °F 35.6 °F 44% 30.15 in 6.2 mi NW 15.0 mph - N/A   Partly Cloudy
7:30 PM 55.4 °F 35.6 °F 47% 30.15 in 6.2 mi WNW 12.7 mph - N/A   Partly Cloudy
8:00 PM 56 °F 33 °F 30% 30.19 in - WNW 17.3 mph - -  
8:00 PM 55.4 °F 33.8 °F 44% 30.18 in 6.2 mi WNW 16.1 mph - N/A   Partly Cloudy
8:30 PM 55.4 °F 33.8 °F 44% 30.18 in 6.2 mi WNW 18.4 mph 29.9 mph N/A   Partly Cloudy
9:00 PM 56 °F 34 °F 31% 30.19 in - WNW 15.0 mph - -  
9:00 PM 53.6 °F 35.6 °F 51% 30.18 in 6.2 mi WNW 15.0 mph - N/A   Partly Cloudy
9:30 PM 53.6 °F 35.6 °F 51% 30.18 in - West 16.1 mph - N/A   Clear
10:00 PM 55 °F 33 °F 31% 30.20 in 16 mi WNW 19.6 mph - -  
10:00 PM 53.6 °F 33.8 °F 47% 30.18 in - WNW 18.4 mph - N/A   Clear
10:30 PM 53.6 °F 33.8 °F 47% 30.18 in - WNW 16.1 mph - N/A   Clear
11:00 PM 55 °F 33 °F 31% 30.22 in - WNW 18.4 mph - -  
11:00 PM 51.8 °F 33.8 °F 50% 30.21 in - WNW 18.4 mph - N/A   Clear
11:30 PM 51.8 °F 33.8 °F 50% 30.21 in - WNW 17.3 mph 31.1 mph N/A   Clear